www.pogodaiklimat.ru

Погода и климат >> Архив погоды >> Канада >> Dauphin Airport


ПОГОДА в Dauphin Airport

  • Прогноз погоды в Dauphin Airport
  • Монитор погоды в Dauphin Airport
  • Климат города

АРХИВ ПОГОДЫ в Dauphin Airport

Время (UTC), дата Ветер
(напр.,м/с)
 
Видим.   Явления Облачность Т
(С)
Тd
(С)
f
(%)
Тe
(С)
Тes
(С)
Комфортность P
(гПа)
Po
(гПа)
Тmin
(С)
Tmax
(С)
R
(мм)
R24
(мм)
S
(см)
18 16.06 С 5 16 км ясно +21.7 +7.0 39 +23 +31 комфорт 1013.1 976.8 +9.9 +22.1
21 16.06 СВ 5 16 км 9/9 1500 м
[]
+22.1 +8.8 43 +23 +24 комфорт 1012.8 976.3
00 17.06 СВ 6 16 км ясно +21.4 +6.7 39 +22 +24 комфорт 1012.8 976.4 +9.9 +23.7
03 17.06 СЗ 2 16 км 10/0
[]
+18.3 +9.1 55 +19 +19 1013.5 977.1
06 17.06 З 3 16 км 10/0
[]
+15.0 +9.8 71 +14 +14 1013.7 977.3 +9.9 +23.7 20
09 17.06 ЮЗ 3 16 км ясно +11.7 +8.8 82 +10 +10 1014.3 977.8
12 17.06 ЮЗ 3 16 км ясно +14.9 +9.6 71 +14 +15 1015.3 978.8 +11.0 +23.7
15 17.06 СЗ 2 16 км ясно +21.3 +9.5 47 +23 +32 комфорт 1015.6 979.2
18 17.06 С 3 16 км 9/0 2000 м
[]
+24.8 +6.4 31 +25 +32 комфорт 1015.8 979.4 +11.0 +25.3
21 17.06 С 4 16 км 5/0 2000 м
[]
+24.5 +6.8 32 +25 +32 комфорт 1016.2 979.7
00 18.06 СВ 6 16 км 5/0
[]
+23.7 +8.3 37 +24 +25 комфорт 1016.8 980.4 +11.0 +25.5
03 18.06 Ю 2 16 км 3/0
[]
+16.7 +8.7 59 +17 +17 1017.9 981.4
06 18.06 З 3 16 км ясно +11.7 +7.7 76 +10 +10 1019.1 982.5 +10.8 +25.5 22
09 18.06 З 5 16 км ясно +9.1 +7.2 88 +6 +6 1019.7 983.0
12 18.06 З 5 16 км 9/0
[]
+13.8 +9.0 73 +12 +12 1021.0 984.4 +8.9 +25.5
15 18.06 З 5 16 км ясно +22.9 +12.1 51 +26 +31 жарко 1021.3 984.7
18 18.06 СВ 4 16 км 3/0 2000 м
[]
+26.8 +5.4 25 +26 +37 жарко 1020.6 984.0 +8.9 +27.2
21 18.06 СВ 4 16 км 3/0
[]
+28.6 +7.0 26 +28 +35 жарко 1019.8 983.2
00 19.06 СВ 4 16 км ясно +27.7 +3.3 21 +26 +29 жарко 1019.2 982.8 +8.9 +29.2
03 19.06 З 2 16 км ясно +18.2 +10.4 60 +19 +19 1019.3 982.8
06 19.06 З 4 16 км ясно +12.9 +6.4 65 +11 +11 1019.7 983.2 +8.9 +29.2
09 19.06 З 4 16 км ясно +10.6 +7.5 81 +8 +8 1019.3 982.8
12 19.06 З 3 16 км ясно +16.0 +10.3 69 +16 +16 1019.2 982.8 +10.0 +29.2
15 19.06 З 3 16 км ясно +23.8 +12.4 49 +26 +33 жарко 1018.9 982.5
18 19.06 З 1 16 км ясно +27.6 +4.2 22 +26 +46 жарко 1018.5 982.1 +10.0 +27.6
21 19.06 СЗ 3 16 км ясно +28.5 +5.4 23 +27 +40 жарко 1017.6 981.1
00 20.06 Ю 3 16 км ясно +28.1 +6.7 26 +27 +31 жарко 1016.7 980.4 +10.0 +29.4
03 20.06 ЮЗ 2 16 км 9/0
[]
+21.3 +11.5 54 +23 +23 комфорт 1016.4 980.2
06 20.06 ЮЗ 4 16 км ясно +17.8 +9.5 58 +18 +18 1016.7 980.5 +10.0 +29.4
09 20.06 З 5 16 км ясно +16.3 +9.8 65 +15 +15 1016.1 979.9
12 20.06 З 5 16 км ясно +17.0 +10.7 66 +16 +17 1016.7 980.5 +14.1 +29.4
15 20.06 З 2 16 км ясно +24.8 +11.8 44 +26 +35 жарко 1016.5 980.3
18 20.06 С 3 16 км ясно +29.5 +9.4 29 +29 +45 жарко 1015.4 979.3 +14.1 +29.6
21 20.06 Ю 2 16 км ясно +31.9 +9.6 25 +31 +46 жарко 1014.8 978.7
00 21.06 СЗ 2 16 км ясно +30.9 +11.5 30 +31 +35 жарко 1013.9 977.8 +14.1 +31.9
03 21.06 ЮЗ 4 16 км ясно +24.0 +12.5 49 +26 +26 жарко 1013.9 977.9
06 21.06 ЮЗ 3 16 км ясно +17.1 +11.2 68 +17 +17 1013.7 977.6 +14.1 +31.9
09 21.06 З 4 16 км ясно +17.4 +10.8 65 +17 +17 1013.5 977.5
12 21.06 З 4 16 км ясно +20.4 +11.1 55 +22 +23 комфорт 1013.7 977.7 +15.6 +31.9
15 21.06 З 4 16 км ясно +26.4 +13.1 44 +28 +35 жарко 1013.4 977.4
18 21.06 СЗ 6 16 км ясно +31.0 +10.2 28 +31 +38 жарко 1012.7 976.7 +15.6 +31.0
21 21.06 З 5 16 км ясно +31.5 +8.8 24 +30 +37 жарко 1011.8 975.8
00 22.06 З 4 16 км ясно +29.2 +11.0 32 +30 +32 жарко 1010.8 974.9 +15.6 +31.8
03 22.06 ЮЗ 3 16 км 3/0
[]
+22.9 +14.9 61 +27 +27 душно 1010.8 974.9
06 22.06 ЮЗ 4 16 км 3/0
[]
+22.6 +12.9 54 +25 +25 комфорт 1010.1 974.3 +15.6 +31.8 19
09 22.06 ЮЗ 4 16 км 3/0
[]
+20.8 +13.6 63 +24 +24 комфорт 1009.9 974.1
12 22.06 ЮЗ 4 16 км 9/0
[]
+20.5 +13.6 65 +23 +24 комфорт 1009.7 973.8 +19.1 +31.8
15 22.06 ЮЗ 5 16 км ясно +27.2 +13.4 43 +29 +34 жарко 1009.0 973.2
18 22.06 ЮЗ 6 16 км 9/0 2000 м
[]
+30.8 +11.0 30 +31 +35 жарко 1007.8 972.1 +19.1 +30.8
21 22.06 ЮЗ 5 16 км 9/0
[]
+31.1 +9.6 26 +30 +35 жарко 1006.0 970.3
00 23.06 ЮЗ 4 16 км ясно +29.5 +13.1 37 +31 +34 жарко 1005.0 969.3 +19.1 +32.2
03 23.06 З 2 16 км 3/0
[]
+23.2 +13.4 54 +26 +26 жарко 1005.4 969.7
06 23.06 З 2 16 км 9/0
[]
+18.1 +15.8 86 +19 +19 1005.5 969.8 +17.4 +32.2 231
09 23.06 ЮЗ 2 16 км 10/0 2000 м
[]
+17.4 +15.9 91 +18 +18 1005.5 969.8
12 23.06 Ю 2 16 км 5/0 2000 м
[]
+16.5 +15.9 96 +17 +18 1006.0 970.2 +16.3 +32.2
15 23.06 В 4 16 км 5/0
[]
+23.5 +17.8 70 +28 +33 душно 1006.4 970.6

 

Местоположение метеостанции Dauphin Airport (Канада): широта 51.10 долгота -100.05 высота над уровнем моря 305 м.

В архиве по умолчанию представлена погода в Dauphin Airport за последнюю неделю. Архивные данные за месяц целиком и за предыдущие месяцы, начиная с января 2011 года, Вы можете получить, выбрав интересующий диапазон дат из раскрывающегося списка и нажав кнопку "Ввод!".


*Определитесь, кто Вы:
робот инопланетянин человек

Внимание! Время в таблицах - всемирное. Для получения местного времени необходимо прибавить поправку, которая в Dauphin Airport равна -8 ч.

Смотрите также архив погоды в соседних городах и на ближайших метеорологических станциях:

Погода в Dauphin Cs (Канада) (3 км)
Погода в Wasagaming (Канада) (51 км)
Погода в Wilson Creek Weir Cs (Канада) (56 км)
Погода в Shoal Lake Cs (Канада) (82 км)
Погода в Roblin (Канада) (88 км)
Погода в Gypsumville (Канада) (110 км)
Погода в Brandon (Канада) (131 км)
Погода в Vanscoy Upper-Air (Канада) (134 км)
Погода в Swan River (Канада) (138 км)
Погода в Carberry Cs (Канада) (142 км)

Пояснения к столбцам:

Ветер - указаны скорость ветра в м/с - средняя за 10 мин, порывы в срок и между сроками (в фигурных скобках) и направление, откуда дует ветер: С - северный, СВ - северо-восточный, В - восточный, ЮВ - юго-восточный, Ю - южный, ЮЗ - юго-западный, З - западный, СЗ - северо-западный.
Видимость - горизонтальная дальность видимости в метрах или километрах. При видимости от 1 до 10 км при отсутствии осадков обычно наблюдается дымка, при ухудшении видимости до 1 км и менее - туман. В сухую погоду видимость может ухудшаться дымом, пылью или мглою.
Явления - указаны атмосферные явления, наблюдавшиеся в срок или в последний час перед сроком; фигурными скобками обозначены явления, наблюдавшиеся между сроками (за 1-3 часа до срока); квадратными скобками обозначены град или гололедные отложения с указанием их диаметра в мм.
Облачность - указаны через наклонную черту общая и нижняя облачность в баллах и высота нижней границы облаков в метрах; квадратными скобками обозначены формы облаков: Ci - перистые, Cs - перисто-слоистые, Cc - перисто-кучевые, Ac - высококучевые, As - высокослоистые, Sc - слоисто-кучевые, Ns - слоисто-дождевые, Cu - кучевые, Cb - кучево-дождевые. Подробнее классификацию облаков см. в Атласе облаков (PDF).
T - Температура воздуха - температура, измеренная на высоте 2 м над землей.
Td - Температура точки росы - температура, при понижении до которой содержащийся в воздухе водяной пар достигнет насыщения.
f - Относительная влажность воздуха - влажноcть воздуха, измеренная на высоте 2 м над землей.
Te - Эффективная температура - температура, которую ощущает одетый по сезону человек в тени. Характеристика душности погоды. При расчете учитывается влияние влажности воздуха и скорости ветра на теплоощущения человека.
Tes - Эффективная температура на солнце - температура, которую ощущает человек, с поправкой на солнечный нагрев. Характеристика знойности погоды. Зависит от высоты солнца над горизонтом, облачности и скорости ветра. Ночью, в пасмурную погоду, а также при ветре 12 м/с и более поправка равна нулю.
P - Атмосферное давление - приведенное к уровню моря атмосферное давление.
Po - Атмосферное давление - измеренное на уровне метеостанции атмосферное давление.
Tmin - Минимальная температура - минимум температуры воздуха на высоте 2 м над землей.
Tmax - Максимальная температура - максимум температуры воздуха на высоте 2 м над землей.
R - Количество осадков - Количество выпавших осадков за период времени, мм. При наведении курсора мыши на число - период времени, за который выпало указанное количество осадков.
R24 - Количество осадков - Количество выпавших осадков за 24 часа, мм.
S - Снежный покров - Высота снежного покрова, см. При наведении курсора мыши на число - состояние снежного покрова и степень покрытия местности в баллах.